• In Hungary
  • List of Countries
  • For 7 days
  • Water Temperature
  • Satellite Maps
  • Weather Map
  • News
  • Weather Widgets
  • user-avatar
    Login

    Hourly Weather Nakhchivan

    Today, 19 October, Thursday

    Time Temperature Precipitation Wind Pressure Humidity
    00:00 +13°C° 0 mm 1 mps 691 mmHg 50%
    01:00 +13°C° 0 mm 1 mps 691 mmHg 51%
    02:00 +12°C° 0 mm 1 mps 691 mmHg 52%
    03:00 +12°C° 0 mm 1 mps 690 mmHg 53%
    04:00 +12°C° 0 mm 1 mps 690 mmHg 54%
    05:00 +11°C° 0 mm 1 mps 690 mmHg 55%
    06:00 +11°C° 0 mm 1 mps 690 mmHg 56%
    07:00 +13°C° 0 mm 1 mps 691 mmHg 50%
    08:00 +15°C° 0 mm 1 mps 691 mmHg 44%
    09:00 +16°C° 0 mm 0 mps 691 mmHg 37%
    10:00 +19°C° 0 mm 1 mps 691 mmHg 34%
    11:00 +20°C° 0 mm 1 mps 691 mmHg 31%
    12:00 +21°C° 0 mm 1 mps 691 mmHg 28%
    13:00 +21°C° 0 mm 1 mps 690 mmHg 27%
    14:00 +21°C° 0 mm 1 mps 690 mmHg 25%
    15:00 +22°C° 0 mm 1 mps 690 mmHg 24%
    16:00 +20°C° 0 mm 1 mps 690 mmHg 27%
    17:00 +19°C° 0 mm 1 mps 690 mmHg 29%
    18:00 +18°C° 0 mm 1 mps 689 mmHg 32%
    19:00 +16°C° 0 mm 1 mps 689 mmHg 33%
    20:00 +16°C° 0 mm 1 mps 689 mmHg 35%
    21:00 +15°C° 0 mm 1 mps 689 mmHg 36%
    22:00 +15°C° 0 mm 1 mps 689 mmHg 36%
    23:00 +14°C° 0 mm 1 mps 689 mmHg 37%

    Tomorrow, 20 October, Friday

    Time Temperature Precipitation Wind Pressure Humidity
    00:00 +14°C° 0 mm 1 mps 689 mmHg 37%
    01:00 +13°C° 0 mm 1 mps 689 mmHg 38%
    02:00 +13°C° 0 mm 1 mps 688 mmHg 39%
    03:00 +12°C° 0 mm 1 mps 688 mmHg 39%
    04:00 +12°C° 0 mm 1 mps 688 mmHg 41%
    05:00 +10°C° 0 mm 0 mps 688 mmHg 42%
    06:00 +10°C° 0 mm 0 mps 688 mmHg 43%
    07:00 +12°C° 0 mm 0 mps 688 mmHg 39%
    08:00 +14°C° 0 mm 0 mps 689 mmHg 35%
    09:00 +16°C° 0 mm 0 mps 689 mmHg 30%
    10:00 +19°C° 0 mm 1 mps 689 mmHg 28%
    11:00 +20°C° 0 mm 1 mps 689 mmHg 26%
    12:00 +20°C° 0 mm 2 mps 688 mmHg 24%
    13:00 +20°C° 0 mm 2 mps 688 mmHg 24%
    14:00 +20°C° 0 mm 2 mps 688 mmHg 23%
    15:00 +21°C° 0 mm 2 mps 688 mmHg 22%
    16:00 +20°C° 0 mm 1 mps 688 mmHg 25%
    17:00 +19°C° 0 mm 1 mps 688 mmHg 27%
    18:00 +18°C° 0 mm 1 mps 688 mmHg 30%
    19:00 +16°C° 0 mm 1 mps 688 mmHg 31%
    20:00 +15°C° 0 mm 0 mps 688 mmHg 33%
    21:00 +14°C° 0 mm 0 mps 688 mmHg 34%
    22:00 +13°C° 0 mm 0 mps 688 mmHg 35%
    23:00 +13°C° 0 mm 0 mps 688 mmHg 35%

    Day after tomorrow, 21 October, Saturday

    Time Temperature Precipitation Wind Pressure Humidity
    00:00 +12°C° 0 mm 0 mps 688 mmHg 36%
    01:00 +12°C° 0 mm 0 mps 687 mmHg 37%
    02:00 +12°C° 0 mm 0 mps 687 mmHg 37%
    03:00 +11°C° 0 mm 0 mps 687 mmHg 38%
    04:00 +11°C° 0 mm 0 mps 687 mmHg 39%
    05:00 +10°C° 0 mm 0 mps 687 mmHg 39%
    06:00 +10°C° 0 mm 0 mps 687 mmHg 40%
    07:00 +12°C° 0 mm 0 mps 687 mmHg 36%
    08:00 +14°C° 0 mm 0 mps 688 mmHg 31%
    09:00 +16°C° 0 mm 0 mps 688 mmHg 26%
    10:00 +19°C° 0 mm 1 mps 688 mmHg 25%
    11:00 +20°C° 0 mm 1 mps 687 mmHg 23%
    12:00 +21°C° 0 mm 1 mps 687 mmHg 22%
    13:00 +21°C° 0 mm 1 mps 687 mmHg 21%
    14:00 +21°C° 0 mm 2 mps 686 mmHg 21%
    15:00 +21°C° 0 mm 2 mps 686 mmHg 20%
    16:00 +21°C° 0 mm 1 mps 686 mmHg 23%
    17:00 +19°C° 0 mm 1 mps 686 mmHg 25%
    18:00 +18°C° 0 mm 1 mps 685 mmHg 28%
    19:00 +16°C° 0 mm 1 mps 686 mmHg 29%
    20:00 +16°C° 0 mm 1 mps 686 mmHg 30%
    21:00 +14°C° 0 mm 0 mps 686 mmHg 31%
    22:00 +15°C° 0 mm 1 mps 685 mmHg 32%
    23:00 +14°C° 0 mm 1 mps 685 mmHg 32%

    22 October, Sunday

    Time Temperature Precipitation Wind Pressure Humidity
    00:00 +14°C° 0 mm 1 mps 685 mmHg 32%
    01:00 +13°C° 0 mm 1 mps 685 mmHg 33%
    02:00 +13°C° 0 mm 1 mps 685 mmHg 33%
    03:00 +13°C° 0 mm 1 mps 685 mmHg 34%
    04:00 +12°C° 0 mm 1 mps 685 mmHg 35%
    05:00 +12°C° 0 mm 1 mps 685 mmHg 36%
    06:00 +12°C° 0 mm 1 mps 685 mmHg 36%
    07:00 +14°C° 0 mm 1 mps 685 mmHg 33%
    08:00 +16°C° 0 mm 1 mps 686 mmHg 29%
    09:00 +18°C° 0 mm 1 mps 686 mmHg 25%
    10:00 +19°C° 0 mm 1 mps 686 mmHg 24%
    11:00 +19°C° 0 mm 2 mps 686 mmHg 22%
    12:00 +20°C° 0 mm 2 mps 686 mmHg 20%
    13:00 +21°C° 0 mm 2 mps 685 mmHg 20%
    14:00 +21°C° 0 mm 2 mps 685 mmHg 20%
    15:00 +21°C° 0 mm 3 mps 685 mmHg 19%
    16:00 +20°C° 0 mm 2 mps 685 mmHg 22%
    17:00 +18°C° 0 mm 2 mps 685 mmHg 24%
    18:00 +18°C° 0 mm 1 mps 685 mmHg 27%
    19:00 +18°C° 0 mm 1 mps 685 mmHg 27%
    20:00 +16°C° 0 mm 1 mps 685 mmHg 28%
    21:00 +16°C° 0 mm 1 mps 685 mmHg 29%
    22:00 +15°C° 0 mm 1 mps 685 mmHg 29%
    23:00 +15°C° 0 mm 1 mps 685 mmHg 30%

    23 October, Monday

    Time Temperature Precipitation Wind Pressure Humidity
    00:00 +14°C° 0 mm 1 mps 685 mmHg 30%
    01:00 +14°C° 0 mm 1 mps 685 mmHg 31%
    02:00 +13°C° 0 mm 1 mps 685 mmHg 32%
    03:00 +13°C° 0 mm 1 mps 685 mmHg 33%
    04:00 +12°C° 0 mm 1 mps 685 mmHg 34%
    05:00 +12°C° 0 mm 1 mps 686 mmHg 35%
    06:00 +12°C° 0 mm 1 mps 686 mmHg 36%
    07:00 +13°C° 0 mm 1 mps 686 mmHg 32%
    08:00 +15°C° 0 mm 1 mps 687 mmHg 29%
    09:00 +18°C° 0 mm 1 mps 688 mmHg 25%
    10:00 +19°C° 0 mm 1 mps 688 mmHg 24%
    11:00 +20°C° 0 mm 1 mps 688 mmHg 22%
    12:00 +21°C° 0 mm 1 mps 687 mmHg 21%
    13:00 +20°C° 0 mm 2 mps 687 mmHg 21%
    14:00 +21°C° 0 mm 2 mps 687 mmHg 20%
    15:00 +21°C° 0 mm 2 mps 687 mmHg 20%
    16:00 +20°C° 0 mm 2 mps 687 mmHg 23%
    17:00 +19°C° 0 mm 2 mps 687 mmHg 26%
    18:00 +18°C° 0 mm 1 mps 687 mmHg 29%
    19:00 +18°C° 0 mm 1 mps 687 mmHg 32%
    20:00 +16°C° 0 mm 2 mps 688 mmHg 34%
    21:00 +16°C° 0 mm 2 mps 688 mmHg 37%
    22:00 +15°C° 0 mm 2 mps 688 mmHg 39%
    23:00 +15°C° 0 mm 2 mps 688 mmHg 40%

    24 October, Tuesday

    Time Temperature Precipitation Wind Pressure Humidity
    00:00 +14°C° 0 mm 1 mps 688 mmHg 42%
    01:00 +14°C° 0 mm 1 mps 688 mmHg 43%
    02:00 +14°C° 0 mm 1 mps 688 mmHg 45%
    03:00 +14°C° 0 mm 1 mps 688 mmHg 46%
    04:00 +13°C° 0 mm 1 mps 688 mmHg 47%
    05:00 +13°C° 0 mm 1 mps 688 mmHg 49%
    06:00 +13°C° 0 mm 1 mps 688 mmHg 50%
    07:00 +14°C° 0 mm 1 mps 689 mmHg 46%
    08:00 +16°C° 0 mm 1 mps 690 mmHg 42%
    09:00 +18°C° 0 mm 1 mps 690 mmHg 38%
    10:00 +20°C° 0 mm 1 mps 690 mmHg 35%
    11:00 +20°C° 0 mm 2 mps 690 mmHg 31%
    12:00 +21°C° 0 mm 2 mps 690 mmHg 28%
    13:00 +21°C° 0 mm 2 mps 690 mmHg 26%
    14:00 +23°C° 0 mm 2 mps 689 mmHg 25%
    15:00 +23°C° 0 mm 2 mps 689 mmHg 24%
    16:00 +21°C° 0 mm 2 mps 689 mmHg 26%
    17:00 +20°C° 0 mm 2 mps 689 mmHg 29%
    18:00 +20°C° 0 mm 1 mps 690 mmHg 31%
    19:00 +19°C° 0 mm 1 mps 690 mmHg 33%
    20:00 +18°C° 0 mm 1 mps 690 mmHg 35%
    21:00 +18°C° 0 mm 1 mps 690 mmHg 36%
    22:00 +16°C° 0 mm 1 mps 690 mmHg 38%
    23:00 +16°C° 0 mm 1 mps 690 mmHg 40%
    Show more